Location: Highland Meadows Observing Site
(48.4428°N, 114.5461°W)
Time: 19:34:11
(UTC-07:00)

Amateur Radio Satellites - All Passes

Search period start: 22 February 2017 19:04
Search period end: 23 February 2017 19:04
Location: Highland Meadows Observing Site, 48.4428°N, 114.5461°W

Satellite Date Start Highest point End Downlink Frequencies (MHz)
Time Altitude Azimuth
NUDT-PHONESAT 22 Feb 19:05:54 19:08:36 19° 268° (W) 19:11:20 437.300
CUTE-I 22 Feb 19:17:27 19:21:34 22° 268° (W) 19:25:44 437.470
ZACube-1 22 Feb 19:17:33 19:20:41 19° 60° (ENE) 19:23:51 437.345
AAUSAT CUBESAT 2 22 Feb 19:20:15 19:23:58 32° 68° (ENE) 19:27:41 437.432
SEEDS 22 Feb 19:21:20 19:25:31 63° 73° (ENE) 19:29:43 437.485
YUBILEINY 22 Feb 19:23:44 19:25:44 11° 41° (NE) 19:27:44 435.215
M-CUBED/EXP-1 PRIME 22 Feb 19:25:54 19:28:43 22° 300° (WNW) 19:31:42 437.505
XW-2A 22 Feb 19:32:35 19:35:44 36° 262° (W) 19:38:56 145.665 - 145.685
STARS 22 Feb 19:34:10 19:36:14 13° 304° (WNW) 19:38:17 437.465
STRAND 1 22 Feb 19:35:49 19:40:38 38° 97° (E) 19:45:24 437.568
HO-68 22 Feb 19:37:32 19:44:40 67° 256° (WSW) 19:51:51 435.675
CUBEBUG 2 22 Feb 19:40:23 19:44:46 68° 73° (ENE) 19:49:21 437.445
CUTE 1.7 + AOD 2 22 Feb 19:54:05 19:58:10 42° 262° (W) 20:02:14 437.475
RS-15 22 Feb 19:58:54 20:10:59 70° 316° (NW) 20:23:25 29.354- 29.394
AO-73 22 Feb 20:06:24 20:10:39 46° 70° (ENE) 20:15:00 145.935
Oscar 11 22 Feb 20:17:03 20:21:16 51° 71° (ENE) 20:25:31 .
UWE-3 22 Feb 20:24:12 20:28:38 71° 259° (WSW) 20:33:13 435.000/436.395/437.385
PCSat 22 Feb 20:40:15 20:43:10 14° 339° (NNW) 20:46:05 145.827
ZACube-1 22 Feb 20:52:07 20:56:31 60° 259° (W) 21:01:02 437.345
AAUSAT CUBESAT 2 22 Feb 20:55:54 20:59:27 27° 265° (W) 21:03:02 437.432
SEEDS 22 Feb 20:59:13 21:01:38 15° 271° (W) 21:04:02 437.485
STRAND 1 22 Feb 21:15:08 21:19:46 34° 296° (WNW) 21:24:22 437.568
YUBILEINY 22 Feb 21:17:22 21:25:37 43° 68° (ENE) 21:33:46 435.215
DELFI C3 22 Feb 21:19:03 21:23:01 76° 75° (ENE) 21:26:59 145.870
CUBEBUG 2 22 Feb 21:19:20 21:21:56 15° 273° (W) 21:24:34 437.445
PRISM 22 Feb 21:19:39 21:22:35 19° 92° (E) 21:25:30 437.425
HO-68 22 Feb 21:30:36 21:33:46 13° 277° (W) 21:36:56 435.675
AO-73 22 Feb 21:43:39 21:47:07 22° 269° (W) 21:50:39 145.935
ESTCUBE 1 22 Feb 21:50:02 21:52:58 17° 60° (ENE) 21:55:55 437.505/2401.250
Oscar 11 22 Feb 21:54:38 21:57:43 19° 269° (W) 22:00:48 .
UNISAT 6 22 Feb 22:11:07 22:15:19 31° 95° (E) 22:19:28 437.425
TIGRISAT 22 Feb 22:12:22 22:16:31 30° 94° (E) 22:20:37 435.000
RS-15 22 Feb 22:14:50 22:26:07 39° 347° (NNW) 22:37:29 29.354- 29.394
PCSat 22 Feb 22:27:48 22:29:06 11° 6° (N) 22:30:24 145.827
VELOX 1 22 Feb 22:28:31 22:31:00 15° 58° (ENE) 22:33:28 145.980
O/OREOS (USA 219) 22 Feb 22:37:18 22:39:00 12° 97° (E) 22:40:41 437.305
FO-29 22 Feb 22:42:07 22:49:18 39° 93° (E) 22:55:56 435.910
PRISM 22 Feb 22:54:13 22:58:06 45° 291° (WNW) 23:01:59 437.425
SPROUT 22 Feb 22:57:15 23:00:26 21° 62° (ENE) 23:03:38 437.525
DELFI C3 22 Feb 22:57:19 22:58:20 11° 273° (W) 22:59:21 145.870
YUBILEINY 22 Feb 23:14:17 23:22:37 51° 271° (W) 23:30:54 435.215
SO-50 22 Feb 23:21:39 23:26:02 42° 120° (ESE) 23:30:24 436.795
ESTCUBE 1 22 Feb 23:24:48 23:29:19 67° 259° (WSW) 23:33:49 437.505/2401.250
50 SAT 22 Feb 23:35:45 23:38:59 36° 70° (ENE) 23:42:15 437.505
DUCHIFAT 1 22 Feb 23:39:06 23:42:14 20° 92° (E) 23:45:22 145.980
EO-79 22 Feb 23:46:10 23:49:50 27° 94° (E) 23:53:29 145.935-145.965
UNISAT 6 22 Feb 23:47:45 23:52:03 36° 293° (WNW) 23:56:18 437.425
TIGRISAT 22 Feb 23:48:54 23:53:15 37° 293° (WNW) 23:57:32 435.000
AIST 2D 23 Feb 00:01:42 00:05:16 65° 101° (E) 00:08:47 435.315
VELOX 1 23 Feb 00:02:31 00:06:53 76° 255° (WSW) 00:11:18 145.980
POLYITAN 1 23 Feb 00:02:31 00:06:36 39° 98° (E) 00:10:38 437.675
DX 1 23 Feb 00:03:32 00:07:44 54° 71° (ENE) 00:11:58 434.975-435.025
NANOSAT C BR1 23 Feb 00:04:45 00:08:46 38° 98° (E) 00:12:45 145.865
QB50P2 23 Feb 00:05:20 00:09:28 44° 99° (E) 00:13:35 145.880/145.840
PCSat 23 Feb 00:10:38 00:14:44 21° 32° (NNE) 00:18:48 145.827
O/OREOS (USA 219) 23 Feb 00:13:11 00:17:40 85° 298° (WNW) 00:22:13 437.305
UKube-1 23 Feb 00:21:16 00:25:30 60° 72° (ENE) 00:29:45 .
FO-29 23 Feb 00:26:58 00:34:32 55° 294° (WNW) 00:41:34 435.910
RS-15 23 Feb 00:30:56 00:42:35 43° 21° (NNE) 00:53:58 29.354- 29.394
SPROUT 23 Feb 00:31:57 00:36:03 47° 261° (W) 00:40:12 437.525
BUGSAT 1 23 Feb 00:47:04 00:50:59 35° 97° (E) 00:54:53 437.445
ITUPSAT 1 23 Feb 00:56:25 00:59:07 15° 56° (NE) 01:01:48 437.325
SO-50 23 Feb 01:02:17 01:06:35 36° 320° (NW) 01:10:50 436.795
BEESAT 23 Feb 01:04:22 01:07:29 18° 58° (ENE) 01:10:37 436.000
50 SAT 23 Feb 01:09:55 01:12:17 17° 267° (W) 01:14:40 437.505
Oscar 19 23 Feb 01:14:00 01:17:59 22° 92° (E) 01:21:57 437.125/150
DUCHIFAT 1 23 Feb 01:14:03 01:18:10 47° 290° (WNW) 01:22:15 145.980
YUBILEINY 23 Feb 01:16:30 01:17:09 10° 294° (WNW) 01:17:47 435.215
EO-79 23 Feb 01:21:45 01:25:39 34° 292° (WNW) 01:29:32 145.935-145.965
AIST 2D 23 Feb 01:36:37 01:38:00 12° 299° (WNW) 01:39:22 435.315
Gurwin Techsat 1B 23 Feb 01:36:56 01:40:58 21° 91° (E) 01:44:57 435.225
POLYITAN 1 23 Feb 01:38:41 01:42:12 25° 296° (WNW) 01:45:42 437.675
NANOSAT C BR1 23 Feb 01:40:48 01:44:19 25° 296° (WNW) 01:47:49 145.865
DX 1 23 Feb 01:41:19 01:44:15 18° 269° (W) 01:47:13 434.975-435.025
QB50P2 23 Feb 01:41:41 01:45:00 22° 297° (WNW) 01:48:19 145.880/145.840
MOZHAYETS 4 23 Feb 01:49:39 01:52:32 16° 59° (ENE) 01:55:25
PCSat 23 Feb 01:53:34 01:59:02 77° 54° (NE) 02:04:28 145.827
O/OREOS (USA 219) 23 Feb 01:55:13 01:57:49 15° 317° (NW) 02:00:27 437.305
UKube-1 23 Feb 01:59:16 02:01:56 16° 270° (W) 02:04:35 .
FO-29 23 Feb 02:13:36 02:17:52 16° 316° (NW) 02:22:02 435.910
BUGSAT 1 23 Feb 02:22:40 02:26:13 26° 295° (WNW) 02:29:45 437.445
ITUPSAT 1 23 Feb 02:31:26 02:36:16 89° 248° (WSW) 02:41:07 437.325
BEESAT 23 Feb 02:39:56 02:44:42 74° 255° (WSW) 02:49:33 436.000
KKS-1 23 Feb 02:40:37 02:43:04 15° 58° (ENE) 02:45:32 437.445
CUBESAT XI-V 23 Feb 02:44:06 02:44:54 10° 54° (NE) 02:45:41 437.345
RS-15 23 Feb 02:44:33 02:57:03 84° 51° (NE) 03:09:02 29.354- 29.394
SO-50 23 Feb 02:46:07 02:48:21 13° 343° (NNW) 02:50:35 436.795
Oscar 19 23 Feb 02:52:39 02:57:40 56° 290° (WNW) 03:02:39 437.125/150
Gurwin Techsat 1B 23 Feb 03:16:04 03:21:20 62° 289° (WNW) 03:26:34 435.225
ITAMSAT 1 23 Feb 03:20:31 03:25:14 33° 96° (E) 03:29:55 435.822/435.867
STARS 23 Feb 03:21:39 03:24:30 17° 59° (ENE) 03:27:22 437.465
MOZHAYETS 4 23 Feb 03:24:29 03:29:08 75° 257° (WSW) 03:33:49
PCSat 23 Feb 03:38:02 03:41:49 20° 254° (WSW) 03:45:36 145.827
AO-7 23 Feb 03:46:03 03:53:52 42° 99° (E) 04:01:37 .
ITUPSAT 1 23 Feb 04:12:52 04:14:48 12° 273° (W) 04:16:44 437.325
KKS-1 23 Feb 04:14:38 04:19:03 79° 256° (WSW) 04:23:31 437.445
CUBESAT XI-V 23 Feb 04:16:46 04:21:24 66° 72° (ENE) 04:26:01 437.345
SO-50 23 Feb 04:29:32 04:30:50 11° 8° (N) 04:32:08 436.795
Oscar 19 23 Feb 04:35:16 04:35:55 10° 310° (NW) 04:36:33 437.125/150
M-CUBED/EXP-1 PRIME 23 Feb 04:40:56 04:44:14 86° 255° (WSW) 04:47:30 437.505
STARS 23 Feb 04:56:04 05:00:24 64° 258° (WSW) 05:04:46 437.465
RS-15 23 Feb 04:57:57 05:08:18 34° 256° (WSW) 05:18:22 29.354- 29.394
Gurwin Techsat 1B 23 Feb 04:58:21 05:00:16 12° 309° (NW) 05:02:11 435.225
ITAMSAT 1 23 Feb 04:59:54 05:04:46 40° 295° (WNW) 05:09:36 435.822/435.867
AO-85 23 Feb 05:04:49 05:08:44 29° 118° (ESE) 05:12:26 145.980
STRAND 1 23 Feb 05:19:22 05:21:59 14° 54° (NE) 05:24:37 437.568
AO-7 23 Feb 05:38:50 05:46:52 54° 299° (WNW) 05:54:50 .
CUTE-I 23 Feb 05:50:04 05:53:37 18° 89° (E) 05:57:09 437.470
KAITUO 1B 23 Feb 05:54:55 05:56:44 13° 89° (E) 05:58:33 145.475/437.950
XW-2F 23 Feb 05:54:58 05:57:19 16° 90° (E) 05:59:39 145.980 - 146.000
CUBESAT XI-V 23 Feb 05:56:17 05:59:13 16° 271° (W) 06:02:10 437.345
XW-2D 23 Feb 05:57:48 06:00:27 18° 91° (E) 06:03:04 145.860 - 145.880
DOVE 4 23 Feb 06:00:34 06:04:22 25° 94° (E) 06:08:19 437.250
XW-2B 23 Feb 06:02:39 06:05:28 19° 92° (E) 06:08:15 145.730 - 145.750
SO-50 23 Feb 06:09:16 06:12:57 23° 32° (NNE) 06:16:34 436.795
XW-2C 23 Feb 06:10:56 06:14:05 24° 94° (E) 06:17:12 145.795 - 145.815
LilacSat-2 23 Feb 06:24:47 06:28:20 34° 96° (E) 06:31:51 437.200
NUDT-PHONESAT 23 Feb 06:31:42 06:35:08 32° 96° (E) 06:38:33 437.300
AO-85 23 Feb 06:44:51 06:49:03 41° 316° (NW) 06:53:00 145.980
XW-2A 23 Feb 06:52:45 06:53:34 11° 89° (E) 06:54:23 145.665 - 145.685
STRAND 1 23 Feb 06:55:13 07:00:21 78° 72° (ENE) 07:05:32 437.568
HO-68 23 Feb 07:02:01 07:07:08 20° 89° (E) 07:12:12 435.675
KAITUO 1B 23 Feb 07:27:24 07:31:09 57° 287° (WNW) 07:34:50 145.475/437.950
XW-2F 23 Feb 07:28:03 07:31:46 48° 288° (WNW) 07:35:26 145.980 - 146.000
CUTE-I 23 Feb 07:28:52 07:34:16 76° 288° (WNW) 07:39:38 437.470
CUBEBUG 2 23 Feb 07:29:06 07:31:10 13° 86° (E) 07:33:14 437.445
XW-2D 23 Feb 07:31:12 07:34:52 42° 289° (WNW) 07:38:29 145.860 - 145.880
AO-7 23 Feb 07:32:59 07:37:52 17° 323° (NW) 07:42:44 .
CUTE 1.7 + AOD 2 23 Feb 07:35:18 07:38:50 25° 94° (E) 07:42:20 437.475
XW-2B 23 Feb 07:36:14 07:39:50 39° 290° (WNW) 07:43:24 145.730 - 145.750
DOVE 4 23 Feb 07:37:52 07:42:13 44° 290° (WNW) 07:46:48 437.250
BEESAT 3 23 Feb 07:44:14 07:48:06 67° 126° (SE) 07:52:05 437.485
XW-2C 23 Feb 07:44:54 07:48:20 31° 292° (WNW) 07:51:45 145.795 - 145.815
SO-50 23 Feb 07:49:23 07:53:55 77° 232° (SW) 07:58:23 436.795
LilacSat-2 23 Feb 07:59:24 08:02:28 23° 295° (WNW) 08:05:30 437.200
NUDT-PHONESAT 23 Feb 08:05:55 08:08:56 23° 294° (WNW) 08:11:56 437.300
UWE-3 23 Feb 08:10:38 08:14:07 20° 90° (E) 08:17:33 435.000/436.395/437.385
PRISM 23 Feb 08:12:23 08:15:38 23° 64° (ENE) 08:18:53 437.425
BEESAT 2 23 Feb 08:17:02 08:20:58 63° 124° (SE) 08:24:56 435.950
XW-2A 23 Feb 08:23:17 08:26:44 60° 286° (WNW) 08:30:08 145.665 - 145.685
AO-85 23 Feb 08:28:46 08:30:29 12° 338° (NNW) 08:32:09 145.980
AAUSAT CUBESAT 2 23 Feb 08:33:35 08:37:22 34° 96° (E) 08:41:07 437.432
SEEDS 23 Feb 08:36:51 08:41:04 74° 103° (ESE) 08:45:13 437.485
STRAND 1 23 Feb 08:36:59 08:40:08 16° 272° (W) 08:43:18 437.568
ZACube-1 23 Feb 08:37:10 08:40:44 22° 91° (E) 08:44:16 437.345
O/OREOS (USA 219) 23 Feb 08:40:15 08:44:41 46° 58° (ENE) 08:49:06 437.305
HO-68 23 Feb 08:48:33 08:55:46 88° 289° (WNW) 09:02:56 435.675
FO-29 23 Feb 08:57:56 09:03:59 29° 55° (NE) 09:10:24 435.910
CUBEBUG 2 23 Feb 09:03:39 09:08:26 88° 290° (WNW) 09:13:12 437.445
CUTE-I 23 Feb 09:10:37 09:13:27 15° 307° (NW) 09:16:17 437.470
CUTE 1.7 + AOD 2 23 Feb 09:10:53 09:14:46 35° 292° (WNW) 09:18:35 437.475
UNISAT 6 23 Feb 09:13:14 09:17:26 41° 68° (ENE) 09:21:47 437.425
TIGRISAT 23 Feb 09:14:19 09:18:30 39° 68° (ENE) 09:22:48 435.000
ISS 23 Feb 09:15:42 09:18:18 22° 141° (SE) 09:20:56 437.550
BEESAT 3 23 Feb 09:23:02 09:26:07 21° 325° (NW) 09:29:14 437.485
AO-73 23 Feb 09:26:28 09:31:01 59° 100° (E) 09:35:27 145.935
SO-50 23 Feb 09:32:26 09:33:34 11° 252° (WSW) 09:34:42 436.795
Oscar 11 23 Feb 09:36:19 09:40:39 64° 102° (ESE) 09:44:55 .
UWE-3 23 Feb 09:46:18 09:50:53 54° 289° (WNW) 09:55:24 435.000/436.395/437.385
Tancredo 1 23 Feb 09:46:27 09:49:30 37° 147° (SSE) 09:52:33 437.200
PRISM 23 Feb 09:46:56 09:50:45 37° 262° (W) 09:54:34 437.425
BEESAT 2 23 Feb 09:55:54 09:59:06 22° 325° (NW) 10:02:19 435.950
AAUSAT CUBESAT 2 23 Feb 10:09:19 10:12:43 25° 295° (WNW) 10:16:05 437.432
ZACube-1 23 Feb 10:12:50 10:17:16 47° 290° (WNW) 10:21:36 437.345
SEEDS 23 Feb 10:14:00 10:16:12 14° 301° (WNW) 10:18:23 437.485
O/OREOS (USA 219) 23 Feb 10:20:12 10:23:49 23° 257° (WSW) 10:27:27 437.305
YUBILEINY 23 Feb 10:23:13 10:31:17 42° 86° (E) 10:39:20 435.215
DELFI C3 23 Feb 10:27:07 10:31:04 75° 104° (ESE) 10:34:58 145.870
DUCHIFAT 1 23 Feb 10:34:20 10:37:43 24° 64° (ENE) 10:41:07 145.980
HO-68 23 Feb 10:37:19 10:42:37 23° 309° (NW) 10:47:54 435.675
AIST 2D 23 Feb 10:39:32 10:42:53 41° 71° (ENE) 10:46:16 435.315
FO-29 23 Feb 10:41:05 10:48:14 78° 257° (WSW) 10:56:05 435.910
CUBEBUG 2 23 Feb 10:41:51 10:44:21 14° 303° (WNW) 10:46:51 437.445
EO-79 23 Feb 10:41:56 10:45:42 32° 67° (ENE) 10:49:30 145.935-145.965
UNISAT 6 23 Feb 10:50:34 10:54:18 25° 267° (W) 10:58:09 437.425
ISS 23 Feb 10:51:10 10:54:28 84° 334° (NNW) 10:57:47 437.550
TIGRISAT 23 Feb 10:51:31 10:55:19 26° 267° (W) 10:59:12 435.000
POLYITAN 1 23 Feb 10:58:21 11:02:25 47° 70° (ENE) 11:06:32 437.675
NANOSAT C BR1 23 Feb 11:00:06 11:04:06 45° 70° (ENE) 11:08:10 145.865
QB50P2 23 Feb 11:01:09 11:05:17 53° 71° (ENE) 11:09:26 145.880/145.840
AO-73 23 Feb 11:03:34 11:06:49 20° 299° (WNW) 11:10:03 145.935
Oscar 11 23 Feb 11:13:32 11:16:19 17° 300° (WNW) 11:19:04 .
ESTCUBE 1 23 Feb 11:14:09 11:17:26 20° 91° (E) 11:20:42 437.505/2401.250
Tancredo 1 23 Feb 11:22:29 11:25:43 60° 346° (NNW) 11:28:57 437.200
BUGSAT 1 23 Feb 11:40:10 11:43:56 39° 69° (ENE) 11:47:48 437.445
VELOX 1 23 Feb 11:49:49 11:52:29 16° 90° (E) 11:55:09 145.980
AO-85 23 Feb 11:52:30 11:54:58 16° 29° (NNE) 11:57:24 145.980
DELFI C3 23 Feb 12:03:37 12:05:18 13° 301° (WNW) 12:07:00 145.870
DUCHIFAT 1 23 Feb 12:09:16 12:13:12 39° 262° (W) 12:17:12 145.980
AIST 2D 23 Feb 12:14:04 12:16:19 16° 269° (W) 12:18:36 435.315
SPROUT 23 Feb 12:14:11 12:17:35 22° 93° (E) 12:20:58 437.525
EO-79 23 Feb 12:17:50 12:21:29 28° 265° (W) 12:25:10 145.935-145.965
YUBILEINY 23 Feb 12:19:23 12:27:56 52° 288° (WNW) 12:36:30 435.215
ISS 23 Feb 12:27:58 12:31:11 45° 359° (N) 12:34:22 437.550
FO-29 23 Feb 12:29:57 12:34:35 18° 278° (W) 12:39:26 435.910
50 SAT 23 Feb 12:30:07 12:32:58 23° 95° (E) 12:35:49 437.505
Oscar 19 23 Feb 12:34:08 12:39:04 47° 68° (ENE) 12:44:00 437.125/150
POLYITAN 1 23 Feb 12:35:22 12:38:28 20° 268° (W) 12:41:35 437.675
NANOSAT C BR1 23 Feb 12:36:55 12:40:03 20° 268° (W) 12:43:13 145.865
QB50P2 23 Feb 12:38:35 12:41:24 17° 269° (W) 12:44:16 145.880/145.840
ESTCUBE 1 23 Feb 12:50:11 12:54:33 51° 290° (WNW) 12:58:52 437.505/2401.250
Tancredo 1 23 Feb 12:59:09 13:02:19 47° 6° (N) 13:05:28 437.200
AO-7 23 Feb 12:59:20 13:05:31 24° 44° (NE) 13:11:41 .
Gurwin Techsat 1B 23 Feb 13:01:20 13:06:25 48° 68° (ENE) 13:11:31 435.225
ITAMSAT 1 23 Feb 13:06:06 13:08:34 14° 52° (NE) 13:11:04 435.822/435.867
BUGSAT 1 23 Feb 13:16:19 13:19:28 21° 267° (W) 13:22:40 437.445
DX 1 23 Feb 13:23:45 13:28:04 60° 102° (ESE) 13:32:22 434.975-435.025
VELOX 1 23 Feb 13:25:00 13:29:23 63° 287° (WNW) 13:33:44 145.980
AO-85 23 Feb 13:32:06 13:36:03 75° 52° (NE) 13:39:58 145.980
UKube-1 23 Feb 13:40:16 13:44:35 64° 102° (ESE) 13:48:52 .
SPROUT 23 Feb 13:49:36 13:53:41 42° 291° (WNW) 13:57:44 437.525
50 SAT 23 Feb 14:03:09 14:06:05 26° 293° (WNW) 14:09:00 437.505
ISS 23 Feb 14:04:36 14:07:54 75° 19° (NNE) 14:11:12 437.550
Oscar 19 23 Feb 14:14:18 14:18:37 27° 266° (W) 14:22:56 437.125/150
BEESAT 3 23 Feb 14:20:34 14:23:50 23° 36° (NE) 14:27:05 437.485
YUBILEINY 23 Feb 14:23:15 14:27:20 14° 314° (NW) 14:31:24 435.215
ITUPSAT 1 23 Feb 14:29:05 14:32:22 18° 90° (E) 14:35:37 437.325
Tancredo 1 23 Feb 14:35:30 14:38:44 72° 206° (SSW) 14:41:57 437.200
BEESAT 23 Feb 14:36:52 14:40:31 21° 92° (E) 14:44:10 436.000
ITAMSAT 1 23 Feb 14:41:58 14:47:09 73° 72° (ENE) 14:52:23 435.822/435.867
Gurwin Techsat 1B 23 Feb 14:42:05 14:46:35 28° 266° (W) 14:51:08 435.225
AO-7 23 Feb 14:48:44 14:57:05 77° 67° (ENE) 15:05:27 .
BEESAT 2 23 Feb 14:54:04 14:57:20 23° 36° (NE) 15:00:36 435.950
DX 1 23 Feb 15:00:54 15:03:51 18° 300° (WNW) 15:06:47 434.975-435.025
AO-85 23 Feb 15:14:04 15:15:52 13° 249° (WSW) 15:17:41 145.980
MOZHAYETS 4 23 Feb 15:16:26 15:19:51 20° 91° (E) 15:23:13
UKube-1 23 Feb 15:17:24 15:20:09 17° 301° (WNW) 15:22:54 .
ISS 23 Feb 15:41:20 15:44:08 26° 218° (SW) 15:46:56 437.550
BEESAT 3 23 Feb 15:57:47 16:01:46 60° 235° (SW) 16:05:43 437.485
KKS-1 23 Feb 16:02:54 16:05:33 15° 90° (E) 16:08:12 437.445
ITUPSAT 1 23 Feb 16:05:52 16:10:38 63° 289° (WNW) 16:15:22 437.325
CUBESAT XI-V 23 Feb 16:11:21 16:13:15 12° 87° (E) 16:15:10 437.345
Tancredo 1 23 Feb 16:12:43 16:14:34 14° 223° (SW) 16:16:24 437.200
BEESAT 23 Feb 16:13:56 16:18:36 53° 290° (WNW) 16:23:15 436.000
ITAMSAT 1 23 Feb 16:23:44 16:27:11 18° 271° (W) 16:30:40 435.822/435.867
BEESAT 2 23 Feb 16:31:27 16:35:29 64° 235° (SW) 16:39:29 435.950
KAITUO 1B 23 Feb 16:39:18 16:40:52 12° 60° (ENE) 16:42:26 145.475/437.950
PCSat 23 Feb 16:39:20 16:44:03 31° 112° (ESE) 16:48:48 145.827
XW-2F 23 Feb 16:40:00 16:42:09 14° 61° (ENE) 16:44:17 145.980 - 146.000
STARS 23 Feb 16:42:22 16:45:24 18° 91° (E) 16:48:25 437.465
XW-2D 23 Feb 16:43:03 16:45:29 16° 62° (ENE) 16:47:55 145.860 - 145.880
AO-7 23 Feb 16:43:45 16:50:39 28° 267° (W) 16:57:36 .
XW-2B 23 Feb 16:47:51 16:50:27 18° 63° (ENE) 16:53:04 145.730 - 145.750
MOZHAYETS 4 23 Feb 16:52:49 16:57:20 53° 289° (WNW) 17:01:47
XW-2C 23 Feb 16:56:00 16:58:56 21° 65° (ENE) 17:01:54 145.795 - 145.815
DOVE 4 23 Feb 17:10:05 17:13:47 32° 68° (ENE) 17:17:33 437.250
LilacSat-2 23 Feb 17:10:07 17:13:32 30° 68° (ENE) 17:16:58 437.200
RS-15 23 Feb 17:13:00 17:23:21 36° 105° (ESE) 17:33:57 29.354- 29.394
NUDT-PHONESAT 23 Feb 17:14:47 17:17:58 26° 67° (ENE) 17:21:10 437.300
CUTE-I 23 Feb 17:15:03 17:20:01 41° 66° (ENE) 17:25:01 437.470
HO-68 23 Feb 17:35:05 17:40:43 26° 52° (NE) 17:46:20 435.675
KKS-1 23 Feb 17:38:07 17:42:34 66° 288° (WNW) 17:47:00 437.445
ITUPSAT 1 23 Feb 17:46:26 17:47:32 11° 308° (NW) 17:48:37 437.325
CUBESAT XI-V 23 Feb 17:46:39 17:51:17 84° 286° (WNW) 17:55:52 437.345
M-CUBED/EXP-1 PRIME 23 Feb 17:49:19 17:52:42 33° 104° (ESE) 17:56:18 437.505
SEEDS 23 Feb 17:59:49 18:00:53 11° 57° (ENE) 18:01:58 437.485
KAITUO 1B 23 Feb 18:10:33 18:14:21 74° 258° (WSW) 18:18:12 145.475/437.950
XW-2F 23 Feb 18:12:03 18:15:51 60° 259° (W) 18:19:41 145.980 - 146.000
XW-2D 23 Feb 18:15:33 18:19:19 52° 260° (W) 18:23:07 145.860 - 145.880
STARS 23 Feb 18:17:45 18:22:06 56° 289° (WNW) 18:26:26 437.465
XW-2B 23 Feb 18:20:36 18:24:20 47° 261° (W) 18:28:05 145.730 - 145.750
PCSat 23 Feb 18:21:59 18:27:15 51° 312° (NW) 18:32:34 145.827
XW-2C 23 Feb 18:29:20 18:32:56 37° 263° (W) 18:36:34 145.795 - 145.815
CUBEBUG 2 23 Feb 18:30:34 18:33:23 17° 59° (ENE) 18:36:15 437.445
CUTE 1.7 + AOD 2 23 Feb 18:31:18 18:35:01 30° 67° (ENE) 18:38:44 437.475
LilacSat-2 23 Feb 18:44:33 18:47:49 25° 266° (W) 18:51:07 437.200
DOVE 4 23 Feb 18:48:06 18:51:34 26° 266° (W) 18:55:06 437.250
NUDT-PHONESAT 23 Feb 18:48:35 18:51:51 27° 265° (W) 18:55:09 437.300
AO-73 23 Feb 18:53:04 18:54:04 11° 54° (NE) 18:55:04 145.935
